Wetbulb
73.49 73.20 72.97 73.58 72.97 72.22 71.50 71.62 71.80 71.13 70.99 70.33 70.26 71.25 71.57 71.93 72.65 72.50 72.08 71.84 72.94 71.37 71.84 70.25 68.49 68.94 68.76 67.88 64.71 60.11 60.03 58.25 55.47 57.64 59.86 59.49 59.10 59.30 61.09 59.87 61.53 59.73 58.99
73.82 73.71 73.47 73.53 73.11 72.61 72.22 71.96 71.85 71.26 70.96 70.50 70.39 70.97 71.62 72.05 72.76 72.63 72.92 73.22 71.48 70.56 71.25 70.03 68.15 69.67 68.20 67.56 65.56 61.09 60.01 58.43 56.62 54.73 58.00 58.88 58.47 60.51 59.59 58.70 61.04 60.01 57.65
73.46 73.37 72.97 73.08 72.91 72.81 72.77 72.72 72.19 71.89 71.82 72.59 73.64 73.68 73.96 73.22 72.70 72.22 72.03 73.26 72.32 71.82 71.96 71.20 69.68 69.17 67.36 66.37 62.96 60.64 60.30 59.78 56.90 56.22 53.99 55.64 58.84 60.18 59.15 59.12 58.80 58.09 58.78
72.60 72.90 72.70 73.20 73.11 73.21 73.62 73.81 72.87 74.24 74.21 73.47 72.92 71.93 72.50 72.41 73.74 74.57 74.32 73.73 73.27 71.87 73.22 72.47 70.32 69.42 67.99 64.25 62.00 60.09 59.85 57.23 55.70 55.90 55.37 54.31 55.78 59.14 59.75 57.62 56.22 57.32 56.62
72.84 72.51 72.21 72.92 72.88 72.62 71.84 70.90 70.93 70.65 71.06 71.35 73.16 72.98 72.99 73.09 73.55 72.82 73.14 71.71 71.84 71.39 72.61 71.87 70.38 70.07 68.92 65.45 62.41 60.66 58.75 56.66 55.38 54.55 54.06 52.79 53.50 57.83 57.76 58.27 56.74 56.60 56.78
68.29 67.88 67.52 67.63 67.55 68.47 69.24 69.88 70.99 71.30 71.71 72.59 71.95 72.55 72.49 73.95 69.17 66.68 68.24 69.62 69.69 70.45 69.08 66.93 66.48 67.70 65.31 64.85 64.65 63.66 61.58 57.62 54.85 54.18 54.25 52.22 52.11 55.20 57.79 58.00 56.46 55.63 54.72
68.04 68.72 68.04 67.47 68.03 69.54 69.25 70.33 69.72 69.86 70.69 70.92 71.75 72.11 72.09 72.96 67.13 63.69 65.23 69.57 69.28 69.46 66.98 64.65 65.16 64.36 62.08 61.13 61.98 62.14 62.19 62.50 60.33 56.34 54.34 54.01 53.79 55.12 56.08 56.00 56.70 56.70 56.18
68.60 69.23 69.93 69.26 69.77 70.16 69.88 70.06 69.82 70.11 70.45 70.72 71.39 72.03 72.24 72.84 63.32 61.87 63.46 68.71 69.70 70.31 66.98 64.55 63.55 61.19 60.26 59.06 57.15 56.60 56.73 58.09 59.98 60.86 56.90 56.99 57.07 56.90 56.79 56.49 56.32 57.57 57.51
66.90 67.70 68.94 69.50 68.83 68.38 67.75 68.11 68.90 69.44 69.53 70.11 70.86 71.63 71.70 72.15 62.24 60.74 64.04 68.49 69.03 69.33 67.56 65.36 62.75 61.31 58.31 57.92 57.53 55.08 54.61 54.67 57.28 58.41 59.17 58.77 58.36 58.09 58.02 57.82 56.12 53.97 55.59
65.65 67.01 68.44 68.42 67.48 66.29 66.22 66.65 67.32 67.16 68.85 68.83 68.94 69.91 65.03 68.02 56.60 56.98 61.15 68.24 68.67 69.55 68.26 66.30 63.12 60.64 56.79 57.50 57.04 54.98 53.27 52.63 53.51 53.22 53.11 55.43 56.62 56.71 59.17 57.84 57.20 55.97 56.92
66.49 66.52 66.45 65.83 66.47 64.91 64.37 64.96 65.36 64.67 65.43 66.44 66.33 68.31 65.08 61.44 60.42 55.13 56.23 64.60 64.64 65.87 68.08 65.77 64.15 56.69 54.20 55.56 56.65 56.35 54.37 53.52 54.42 51.88 51.64 52.93 54.00 53.32 55.24 57.60 57.95 57.34 56.32
62.96 63.72 63.87 65.02 66.38 63.88 62.99 63.05 62.72 61.37 61.04 62.08 62.92 66.34 65.85 64.09 58.77 56.60 55.15 56.03 59.59 65.16 65.12 66.09 63.43 54.63 53.40 54.31 56.86 55.24 54.30 55.55 54.00 53.71 54.65 53.04 53.60 55.02 56.72 57.04 57.67 57.98 58.48
60.70 60.95 61.77 63.06 64.46 62.59 61.66 61.83 60.67 60.06 59.79 60.01 60.60 62.39 64.40 62.72 61.11 56.60 55.53 55.47 58.59 63.22 65.64 62.03 58.61 52.73 51.96 52.73 55.66 54.10 54.67 55.89 55.48 55.64 55.20 54.76 55.94 57.53 57.02 56.36 57.58 57.58 58.36
59.76 59.90 60.27 60.11 60.10 63.03 61.91 61.39 59.42 58.64 58.53 59.81 60.94 60.75 61.41 61.97 59.13 57.12 56.96 56.78 58.06 60.62 62.74 60.07 59.71 57.61 55.81 57.17 56.95 55.40 57.56 56.78 56.98 57.06 56.84 56.58 57.06 56.76 55.68 56.24 56.08 56.30 56.16
59.48 58.42 55.25 58.29 59.33 59.05 59.40 58.48 58.02 55.57 56.44 60.60 59.30 59.45 58.06 56.94 56.22 49.87 48.04 51.87 52.49 53.68 52.15 59.97 58.36 56.96 57.42 58.15 57.79 57.62 56.65 57.29 57.69 58.31 57.30 56.44 55.92 56.02 55.26 56.48 56.02 56.12 56.34
54.98 55.04 54.25 55.10 57.22 58.51 58.22 56.84 52.44 53.52 50.25 48.08 48.10 52.54 55.38 50.71 46.70 44.68 43.87 43.66 44.24 45.67 56.58 60.28 59.25 58.20 58.94 59.10 58.02 57.98 56.21 57.16 57.05 58.31 56.98 56.24 55.36 55.50 55.48 55.68 55.94 56.44 54.57
54.33 53.15 53.29 53.74 53.26 53.17 53.59 56.24 54.37 53.73 49.82 46.09 46.83 47.19 46.10 45.22 44.63 44.15 43.37 43.38 46.46 49.55 60.34 60.84 60.24 59.39 58.46 59.63 60.00 59.94 56.03 56.68 57.09 58.64 57.10 55.80 55.84 55.75 55.96 54.75 54.98 56.20 54.55
53.73 52.89 53.24 52.70 54.12 55.90 55.16 54.01 53.13 51.81 50.92 51.39 49.48 48.74 46.20 45.09 44.20 44.98 45.38 50.90 59.63 58.41 60.34 61.41 60.66 60.58 59.91 59.34 59.72 60.40 61.01 59.91 59.41 60.53 58.01 57.95 56.62 56.09 56.46 55.15 54.46 55.94 55.23
54.04 53.42 53.59 54.06 53.28 52.63 51.77 51.39 50.74 50.11 49.61 49.28 50.55 50.34 48.72 45.82 44.90 47.19 48.22 56.30 55.78 55.82 55.97 57.78 61.48 61.93 60.69 60.75 60.87 61.13 61.61 61.33 60.83 61.26 59.88 58.91 59.32 58.21 57.34 56.85 55.18 53.06 55.44
53.65 53.96 52.30 50.57 49.14 48.57 48.50 48.18 47.55 47.52 47.88 49.14 51.61 50.80 48.72 48.36 49.68 49.79 51.53 52.42 52.49 52.55 53.13 53.67 54.73 56.58 60.35 61.40 61.17 61.15 61.51 61.51 61.78 61.30 60.12 59.58 59.86 59.37 58.35 57.91 56.67 54.76 56.78
51.67 50.71 50.39 47.86 47.50 46.87 46.63 46.13 46.03 45.98 46.03 47.61 49.85 49.18 44.51 48.42 48.67 48.57 48.81 48.87 49.19 49.42 50.02 50.78 51.72 53.55 56.20 57.32 62.04 61.54 61.92 62.22 63.02 62.99 61.52 60.00 59.94 59.62 59.91 59.32 57.93 54.77 55.20
49.29 47.43 46.58 45.88 45.93 44.98 43.97 44.27 44.52 44.49 45.75 46.58 46.88 47.38 44.54 47.74 47.30 46.85 47.32 47.17 47.23 47.78 48.51 49.32 49.99 51.04 52.64 53.79 55.07 58.62 61.83 61.81 62.64 63.18 61.96 60.83 59.88 59.57 59.76 58.88 57.93 56.32 55.68
48.38 46.56 45.30 45.12 44.88 45.89 44.94 44.70 44.48 44.99 44.74 44.77 44.59 44.62 44.69 44.85 45.05 44.87 45.23 46.11 46.09 46.45 47.32 47.84 48.76 49.14 50.45 51.35 52.99 54.33 54.75 61.70 63.05 62.84 61.71 60.39 59.77 59.47 59.35 58.56 58.23 56.43 56.14
46.64 45.89 44.58 43.33 43.23 42.84 43.40 43.78 44.09 42.80 43.91 43.69 43.63 43.44 43.48 43.68 44.02 44.01 44.83 45.73 46.22 46.72 47.28 47.50 48.26 48.29 48.87 49.71 50.49 51.45 51.84 48.36 48.64 61.84 62.44 60.72 59.56 56.26 59.23 59.03 58.88 58.06 55.93
46.28 45.42 44.27 42.62 42.17 41.76 42.69 43.38 43.76 42.78 40.02 42.74 41.95 40.09 40.59 42.76 43.55 44.30 45.24 45.57 45.93 46.18 46.67 46.87 46.94 46.76 46.54 46.83 47.89 49.79 45.56 34.86 40.20 42.06 57.22 61.21 60.15 59.38 59.57 59.14 58.26 57.49 56.33
45.95 45.06 43.42 42.35 41.59 41.64 41.02 41.07 43.15 41.49 38.77 38.59 38.84 39.58 42.07 42.76 43.63 44.37 44.81 44.36 44.14 44.74 45.07 45.30 44.98 44.34 44.58 44.88 46.04 39.15 36.68 34.68 40.86 40.12 44.64 59.49 60.32 59.67 59.78 58.97 58.57 57.81 57.57
MSLP
1010.27 1010.53 1011.08 1011.46 1011.85 1012.08 1012.35 1012.32 1012.21 1012.21 1012.25 1012.21 1012.12 1012.15 1012.12 1012.06 1011.86 1011.88 1011.97 1011.90 1011.90 1011.96 1011.89 1012.31 1012.63 1012.73 1013.05 1013.25 1013.27 1013.80 1014.06 1014.52 1015.61 1016.19 1016.15 1016.50 1016.83 1016.72 1016.71 1017.41 1017.57 1017.77 1018.19
1009.46 1010.21 1010.47 1011.07 1011.46 1011.73 1011.91 1011.97 1012.08 1012.07 1012.09 1012.20 1012.18 1012.18 1011.93 1011.73 1011.63 1011.65 1011.65 1011.38 1011.44 1011.28 1011.42 1011.83 1011.92 1012.21 1012.67 1013.11 1013.19 1013.39 1013.79 1014.27 1015.11 1016.02 1016.14 1016.56 1016.84 1016.87 1016.97 1017.43 1017.54 1017.90 1018.23
1009.37 1009.97 1010.59 1010.99 1011.29 1011.45 1011.51 1011.72 1011.86 1012.12 1012.11 1012.05 1012.11 1012.02 1011.85 1011.78 1011.39 1011.25 1011.11 1010.67 1010.50 1010.67 1010.66 1011.35 1011.08 1011.69 1012.33 1012.82 1013.19 1013.29 1013.73 1014.12 1014.84 1015.49 1016.33 1016.73 1016.86 1016.75 1017.04 1017.53 1017.85 1018.11 1018.28
1009.36 1009.96 1010.39 1010.78 1011.12 1011.25 1011.49 1011.83 1012.20 1012.19 1012.26 1012.27 1012.11 1011.85 1011.61 1011.06 1010.76 1010.61 1010.36 1010.27 1010.02 1010.17 1009.78 1010.17 1010.73 1011.17 1011.65 1012.36 1012.80 1013.13 1013.69 1014.23 1015.11 1015.62 1016.16 1016.68 1016.94 1016.77 1017.18 1017.65 1018.17 1018.29 1018.46
1009.56 1010.22 1010.68 1010.77 1011.32 1011.62 1012.02 1012.13 1012.17 1012.31 1012.26 1012.23 1012.06 1011.76 1011.28 1010.93 1010.74 1010.51 1010.25 1010.05 1010.12 1009.76 1009.46 1009.63 1010.04 1010.88 1011.44 1011.71 1012.20 1012.99 1013.50 1014.03 1014.98 1015.68 1016.17 1016.57 1016.84 1016.80 1016.83 1017.40 1017.80 1018.07 1018.41
1010.25 1010.76 1011.11 1011.22 1011.65 1012.05 1012.12 1012.14 1012.09 1012.25 1012.18 1011.92 1011.74 1011.48 1011.03 1010.60 1010.32 1010.32 1010.41 1010.02 1010.09 1009.84 1009.65 1010.09 1010.39 1010.89 1011.38 1011.69 1012.15 1012.51 1012.87 1013.51 1014.44 1015.36 1015.83 1016.01 1016.47 1016.52 1016.56 1016.97 1017.53 1018.04 1018.21
1010.88 1011.17 1011.27 1011.52 1011.89 1012.19 1012.01 1012.03 1012.30 1012.28 1012.16 1011.96 1011.59 1011.16 1010.70 1010.39 1010.16 1010.18 1010.19 1009.85 1009.67 1009.85 1010.24 1010.48 1010.69 1011.29 1011.53 1011.85 1012.30 1012.68 1013.09 1013.24 1013.34 1014.04 1014.89 1015.15 1015.66 1015.96 1016.29 1016.79 1017.10 1017.34 1017.45
1011.30 1011.56 1011.86 1012.06 1012.12 1012.17 1012.15 1012.19 1012.19 1012.05 1011.85 1011.64 1011.26 1010.83 1010.44 1010.03 1010.05 1010.37 1010.12 1009.87 1009.67 1009.30 1009.49 1010.43 1010.70 1011.29 1011.63 1012.10 1012.65 1013.05 1013.27 1013.43 1013.43 1013.75 1014.10 1014.61 1014.79 1015.38 1015.48 1015.94 1016.42 1016.76 1017.21
1011.49 1011.70 1011.84 1011.89 1012.10 1012.28 1012.33 1012.48 1012.45 1012.21 1012.01 1011.76 1011.37 1010.85 1010.36 1010.07 1010.16 1010.62 1010.32 1010.05 1009.99 1009.90 1009.70 1010.19 1010.92 1011.10 1011.57 1011.92 1012.58 1013.25 1013.61 1013.81 1013.49 1013.60 1013.79 1014.36 1014.72 1015.16 1015.41 1015.97 1016.37 1016.61 1016.89
1011.57 1011.70 1011.76 1011.96 1012.19 1012.41 1012.64 1012.68 1012.53 1012.34 1012.22 1012.00 1011.68 1011.19 1011.05 1010.87 1010.95 1010.88 1010.74 1010.60 1010.55 1010.30 1010.27 1010.56 1010.79 1011.55 1011.87 1012.19 1012.74 1013.31 1013.77 1014.06 1013.91 1014.36 1014.67 1014.82 1015.09 1015.46 1015.47 1015.60 1015.88 1016.24 1016.32
1011.65 1011.75 1011.93 1012.09 1012.37 1012.64 1012.82 1012.85 1012.82 1012.77 1012.56 1012.36 1012.11 1012.01 1011.91 1011.83 1011.99 1011.83 1011.42 1011.37 1011.32 1010.77 1010.59 1010.88 1011.08 1011.69 1012.05 1012.41 1012.71 1013.38 1013.53 1013.88 1014.24 1014.72 1015.03 1015.14 1015.34 1015.66 1015.63 1015.48 1015.57 1015.62 1015.63
1011.70 1012.12 1012.44 1012.55 1012.71 1012.95 1013.08 1013.21 1013.22 1013.24 1013.12 1012.97 1012.88 1012.70 1012.68 1012.70 1012.59 1012.66 1012.28 1012.03 1011.62 1011.19 1010.91 1011.00 1011.40 1011.51 1012.35 1012.55 1013.01 1013.25 1013.60 1013.90 1014.38 1015.12 1015.27 1015.38 1015.43 1015.70 1015.60 1015.62 1015.56 1015.35 1015.22
1011.94 1012.31 1012.57 1012.66 1012.81 1012.95 1013.38 1013.63 1013.78 1013.77 1013.81 1013.80 1013.62 1013.43 1013.23 1013.19 1013.16 1013.00 1012.72 1012.42 1011.91 1011.61 1011.28 1011.17 1011.46 1011.75 1012.04 1012.69 1013.02 1013.30 1013.55 1014.18 1014.58 1015.07 1015.26 1015.33 1015.18 1015.08 1015.51 1015.63 1015.66 1015.63 1015.47
1012.19 1012.50 1012.69 1012.91 1013.05 1013.20 1013.61 1013.79 1014.17 1014.33 1014.31 1014.29 1014.17 1014.12 1014.00 1013.82 1013.81 1013.71 1013.46 1012.96 1012.31 1011.81 1011.36 1011.33 1011.50 1011.79 1011.97 1012.55 1012.99 1013.69 1013.64 1013.88 1014.46 1014.67 1014.84 1015.07 1015.24 1015.35 1015.50 1015.63 1015.79 1015.88 1015.98
1012.34 1012.74 1012.90 1013.08 1013.44 1013.87 1014.10 1014.39 1014.59 1014.92 1014.72 1014.66 1014.90 1014.73 1014.65 1014.65 1014.65 1014.36 1013.89 1013.29 1012.75 1012.34 1012.16 1011.76 1011.64 1011.84 1012.15 1012.66 1012.99 1013.65 1013.90 1013.81 1014.34 1014.62 1014.61 1014.89 1015.24 1015.52 1015.57 1015.57 1015.80 1016.01 1016.08
1012.90 1013.31 1013.32 1013.42 1014.03 1014.32 1014.66 1015.06 1015.16 1015.11 1015.12 1015.13 1015.32 1015.25 1015.12 1015.10 1014.67 1013.93 1013.25 1012.97 1012.51 1012.22 1012.13 1011.90 1011.91 1011.82 1011.77 1012.30 1013.12 1013.66 1013.77 1013.79 1014.06 1014.40 1014.30 1014.49 1014.88 1015.16 1015.35 1015.59 1015.79 1016.00 1016.28
1012.67 1013.56 1013.73 1014.01 1014.23 1014.57 1015.06 1015.46 1015.82 1015.73 1015.32 1015.35 1015.37 1015.42 1015.26 1015.20 1014.77 1014.08 1013.45 1012.72 1012.44 1012.18 1012.10 1011.98 1011.91 1011.91 1011.97 1011.95 1012.09 1013.19 1013.45 1013.42 1013.47 1014.13 1014.06 1014.10 1014.32 1014.73 1015.03 1015.39 1015.73 1015.92 1016.42
1012.54 1013.31 1013.62 1014.28 1014.90 1015.27 1015.57 1016.17 1016.24 1016.25 1016.39 1016.11 1015.72 1015.59 1015.61 1015.48 1014.93 1014.44 1013.55 1012.75 1012.51 1012.30 1012.17 1011.98 1011.86 1011.74 1011.67 1011.85 1011.95 1012.11 1012.76 1013.14 1013.41 1013.51 1013.70 1013.71 1013.87 1014.14 1014.59 1015.01 1015.36 1015.83 1016.01
1013.03 1013.30 1013.94 1014.82 1015.65 1016.28 1016.49 1016.56 1016.73 1016.80 1016.90 1016.67 1016.21 1015.94 1015.92 1015.61 1015.15 1014.97 1014.33 1013.73 1013.47 1013.17 1012.84 1012.42 1011.93 1011.54 1011.42 1011.41 1011.56 1011.66 1011.83 1012.34 1012.67 1013.01 1013.09 1013.24 1013.43 1013.50 1013.92 1014.29 1014.94 1015.21 1015.59
1013.66 1013.82 1014.34 1015.64 1016.27 1016.73 1017.07 1017.14 1017.16 1017.06 1017.06 1016.88 1016.62 1016.82 1016.27 1015.86 1015.78 1015.51 1014.96 1014.55 1014.31 1013.97 1013.57 1013.12 1012.59 1012.13 1011.57 1011.07 1011.02 1011.30 1011.52 1011.51 1011.92 1012.06 1012.17 1012.46 1012.65 1012.84 1013.32 1013.72 1014.48 1014.94 1015.25
1014.79 1015.15 1015.73 1016.22 1016.49 1017.02 1017.40 1017.76 1017.59 1017.61 1017.51 1017.31 1017.14 1017.11 1016.73 1016.48 1016.43 1016.00 1015.43 1015.06 1014.82 1014.55 1014.15 1013.64 1013.20 1012.79 1012.22 1011.59 1010.80 1010.64 1010.81 1010.96 1010.99 1011.36 1011.36 1011.55 1012.01 1012.35 1012.77 1013.44 1014.05 1014.40 1014.62
1015.54 1016.30 1016.62 1016.73 1016.79 1017.22 1017.98 1018.08 1017.95 1018.13 1018.04 1017.76 1017.65 1017.33 1016.93 1016.74 1016.54 1016.18 1015.73 1015.34 1015.04 1014.81 1014.45 1013.93 1013.36 1013.03 1012.61 1012.01 1011.45 1010.83 1010.27 1010.34 1010.47 1010.63 1010.46 1010.71 1011.21 1011.82 1012.23 1012.76 1013.23 1013.55 1013.97
1016.43 1016.78 1017.24 1017.19 1017.48 1017.61 1018.09 1018.50 1018.59 1018.63 1018.45 1018.19 1018.14 1017.63 1017.19 1017.08 1016.75 1016.42 1016.02 1015.51 1015.10 1014.72 1014.42 1014.06 1013.50 1012.99 1012.58 1012.10 1011.57 1011.04 1010.59 1009.94 1009.72 1009.79 1009.74 1010.12 1010.57 1011.07 1011.48 1012.06 1012.53 1012.94 1013.36
1016.05 1015.84 1017.15 1017.64 1018.11 1018.65 1018.70 1018.73 1018.79 1018.74 1018.53 1018.45 1018.21 1017.66 1017.51 1017.25 1016.75 1016.35 1015.91 1015.53 1015.13 1014.66 1014.28 1014.01 1013.54 1013.04 1012.57 1012.08 1011.65 1011.12 1010.66 1010.55 1010.18 1009.33 1009.35 1009.63 1009.83 1010.48 1011.01 1011.56 1011.80 1012.38 1013.10
1015.97 1017.06 1017.76 1018.50 1018.49 1018.71 1018.81 1018.87 1018.87 1018.73 1018.65 1018.50 1018.13 1017.92 1017.69 1017.23 1016.80 1016.31 1015.79 1015.37 1014.99 1014.63 1014.22 1013.81 1013.49 1013.02 1012.43 1012.03 1011.58 1011.05 1010.72 1010.69 1010.40 1010.11 1009.41 1009.26 1009.47 1009.71 1010.22 1010.89 1011.46 1011.87 1012.48
1016.71 1017.67 1018.09 1018.62 1018.58 1018.85 1019.18 1019.29 1019.01 1018.78 1018.53 1018.31 1018.19 1017.86 1017.53 1017.31 1016.87 1016.32 1015.90 1015.51 1015.08 1014.60 1014.22 1013.91 1013.53 1013.08 1012.42 1011.89 1011.38 1011.18 1010.87 1010.54 1010.09 1009.92 1009.92 1009.25 1009.11 1009.37 1009.81 1010.37 1010.83 1011.38 1011.95
Wind_Speed
11 11 9 8 7 6 6 7 7 6 7 7 5 5 6 6 6 5 5 6 6 5 5 7 6 5 5 4 2 2 3 4 4 1 2 2 2 3 2 3 5 4 3
13 10 11 7 7 7 6 7 6 7 5 6 6 6 6 6 6 6 6 7 7 6 4 6 7 4 5 3 2 5 4 4 4 4 2 2 2 2 2 3 3 3 3
10 9 7 7 7 7 7 6 5 5 6 6 5 5 5 7 7 7 7 9 7 5 3 8 9 6 5 3 2 4 4 3 3 5 3 1 1 2 2 3 3 3 2
8 8 8 7 7 6 5 2 3 2 3 6 4 4 6 6 6 7 6 6 7 5 10 8 5 6 8 7 5 5 5 5 4 4 3 2 2 3 3 3 3 1 2
7 7 5 6 5 5 6 5 5 5 4 4 6 6 6 5 6 7 6 5 6 5 6 5 5 5 9 9 6 6 7 5 4 4 3 2 2 4 6 3 4 3 3
9 8 5 7 6 5 4 4 3 3 5 5 6 6 7 5 10 6 5 4 5 6 4 4 4 10 8 10 8 11 11 9 6 4 4 4 4 3 3 4 3 3 3
7 6 6 6 5 3 2 3 3 3 4 5 6 7 8 6 6 4 4 2 1 4 4 5 6 4 8 8 10 11 8 9 11 7 6 5 5 7 5 4 4 3 3
6 6 6 4 5 5 4 4 4 3 4 5 7 8 7 6 2 3 5 5 5 3 8 7 7 7 6 8 7 7 5 4 5 5 6 6 4 6 7 5 6 4 3
6 6 5 5 5 5 5 5 4 4 4 5 6 7 6 4 3 5 6 6 5 4 5 7 6 7 11 13 10 8 6 3 7 8 11 10 8 8 6 4 2 3 2
6 6 6 6 6 6 4 4 3 3 3 5 6 9 11 10 14 11 7 4 4 2 3 3 7 4 11 11 10 8 7 4 6 5 4 6 5 5 8 4 4 4 3
4 5 5 6 6 5 3 3 4 5 5 6 8 8 11 11 10 13 13 5 4 3 2 3 3 7 9 10 9 6 6 6 6 5 3 3 3 2 1 1 2 3 3
7 6 6 5 4 3 6 5 6 6 6 6 6 4 5 6 11 12 12 7 5 2 2 2 4 13 10 8 8 9 11 7 5 3 3 3 3 3 2 2 1 1 0
6 5 4 4 4 4 6 5 4 5 5 4 4 4 4 5 6 12 12 14 8 3 2 3 7 10 10 5 7 11 12 4 4 3 3 3 3 4 4 2 3 3 3
5 3 1 2 2 4 4 4 4 4 4 4 5 4 5 4 6 7 6 6 9 6 5 2 1 6 6 4 4 3 4 5 5 3 3 2 2 3 3 3 1 2 2
4 4 4 3 4 5 5 4 4 3 3 4 3 4 5 6 7 9 7 6 5 3 5 0 2 3 4 3 2 4 3 4 4 3 4 5 3 3 2 2 2 1 2
7 5 4 5 5 4 4 5 10 6 7 8 7 5 3 2 13 12 11 10 9 6 1 1 1 2 4 5 3 3 3 5 3 3 4 6 5 5 4 2 1 3 3
8 6 5 5 5 4 3 4 4 4 7 9 7 5 2 7 14 14 12 9 4 1 1 1 2 3 4 4 6 5 3 3 4 3 4 5 5 4 4 3 2 3 3
8 9 6 5 5 6 6 5 4 4 4 4 4 8 12 13 14 14 14 7 4 4 2 3 3 3 4 5 4 5 4 3 3 4 5 5 5 5 3 4 4 4 4
6 7 9 9 7 6 4 5 4 4 3 3 3 6 8 11 12 10 12 6 5 4 6 6 5 3 4 5 6 6 5 5 5 4 5 6 6 5 4 5 5 7 7
11 17 13 7 5 5 4 4 4 4 4 4 5 4 5 6 7 8 7 6 5 6 6 6 6 6 6 5 6 6 7 7 8 7 5 6 7 6 6 5 5 5 6
7 8 12 7 7 5 5 5 4 4 4 4 3 3 8 4 5 5 5 5 6 6 6 6 6 6 5 5 4 6 8 8 8 7 7 7 7 6 5 5 4 5 5
7 6 6 6 6 6 4 3 4 4 5 5 5 5 10 4 4 5 5 5 5 5 6 6 5 6 6 5 5 6 7 8 7 6 6 7 8 7 8 5 5 5 5
7 7 6 6 5 7 5 3 3 3 4 4 4 5 5 5 5 5 6 5 5 5 5 5 6 6 5 5 5 4 5 3 5 6 7 8 9 9 7 5 5 3 6
8 10 8 4 4 4 3 3 2 3 3 3 4 4 4 4 5 6 5 5 6 6 5 5 6 8 7 6 5 5 3 3 5 5 9 9 10 9 9 6 8 7 6
9 6 6 3 4 3 2 2 2 3 3 3 3 3 4 4 5 5 5 4 5 6 7 7 6 7 9 12 10 10 4 5 5 8 6 8 10 12 10 9 8 5 5
6 5 5 4 4 3 0 1 1 2 3 3 4 4 4 4 5 5 5 6 5 6 7 6 8 12 12 9 8 8 9 9 7 7 5 6 8 8 9 10 13 7 7
Wind_Direction
191 190 185 194 196 197 210 227 232 236 237 251 249 244 249 261 271 271 261 257 234 229 211 195 215 182 188 203 193 158 155 121 120 157 113 135 150 159 159 162 195 167 200
186 186 191 182 186 194 213 227 239 248 270 273 284 285 281 273 267 271 269 271 234 236 246 206 214 196 181 193 225 163 152 139 127 133 137 130 163 160 165 177 167 158 186
172 172 166 183 188 204 215 229 240 263 276 285 277 282 306 297 286 259 250 261 262 213 157 239 210 180 171 177 216 152 148 115 111 137 137 130 142 167 113 65 111 117 203
159 168 176 182 197 200 223 269 329 338 352 333 322 318 288 284 284 276 275 286 286 200 177 224 199 194 167 162 177 157 139 125 116 126 117 135 117 186 120 143 121 123 180
115 116 116 106 90 79 81 71 48 30 349 305 295 291 285 294 292 291 293 300 299 263 217 173 173 161 160 171 156 155 144 130 135 141 124 127 166 162 179 157 177 141 209
91 100 101 94 90 73 67 43 24 344 311 325 295 282 286 289 289 334 306 315 315 278 175 114 101 118 133 137 146 146 166 153 149 150 163 161 190 182 155 166 137 159 217
96 93 88 88 80 78 21 26 2 325 302 290 288 289 287 281 287 342 308 329 318 308 140 158 130 127 124 119 106 96 100 174 175 160 163 184 163 189 149 142 166 179 195
99 99 110 122 106 86 68 41 9 343 330 316 305 296 286 283 332 315 348 356 333 294 151 165 149 154 143 135 120 100 90 82 141 192 171 168 176 158 151 167 181 170 113
112 111 105 93 86 71 50 21 349 339 329 320 313 314 312 320 247 27 360 11 341 34 121 149 163 156 159 142 127 120 106 66 55 65 115 122 121 130 147 123 174 127 205
128 122 111 102 92 68 45 17 334 322 343 349 356 13 18 33 36 39 18 9 29 64 111 116 126 156 152 137 130 136 131 175 121 90 70 92 120 158 153 152 165 179 176
110 92 89 81 93 78 64 29 36 38 26 15 18 33 45 36 35 22 27 39 354 14 18 133 122 128 147 135 139 154 170 158 149 139 149 127 117 191 185 121 197 174 189
99 99 95 101 112 86 77 60 52 42 37 22 23 28 46 29 27 16 16 1 338 16 32 112 134 146 146 176 172 159 154 134 122 146 151 149 152 193 225 176 137 28 349
101 111 112 108 124 102 84 81 56 44 40 22 20 11 16 26 17 7 4 349 354 337 319 51 166 167 158 183 187 163 148 149 140 164 182 185 202 185 138 111 91 78 43
118 113 73 87 143 113 82 92 84 66 54 33 25 10 359 8 8 354 343 336 332 347 344 58 260 160 147 152 113 182 174 161 172 185 188 195 150 144 160 159 120 92 69
95 92 44 106 97 98 87 77 87 41 34 77 38 18 12 7 338 309 293 317 313 330 329 351 106 117 140 151 153 196 201 143 165 211 171 163 158 177 194 170 134 142 114
88 73 67 71 71 87 93 80 43 83 81 78 89 73 28 298 318 324 320 310 294 294 197 244 212 165 166 154 168 220 222 194 183 218 182 166 173 185 174 170 149 141 142
110 101 80 68 68 69 83 114 87 10 53 83 117 78 15 334 342 337 321 308 344 334 289 245 217 191 181 194 170 200 223 226 151 228 188 188 167 176 158 174 179 150 141
105 103 93 72 66 71 73 71 65 46 13 347 16 44 12 352 342 346 342 328 22 347 304 309 246 207 189 184 192 199 209 241 198 193 208 199 184 169 164 168 171 174 150
91 80 81 78 64 58 59 65 63 49 8 331 334 19 359 339 332 352 353 13 357 2 352 350 333 240 202 197 197 201 202 224 229 206 201 196 194 183 189 169 173 175 154
85 88 85 84 75 67 47 54 39 31 16 0 21 1 351 354 355 352 1 358 359 350 343 340 341 331 333 223 197 206 221 211 226 223 199 196 197 183 184 181 173 163 188
81 75 89 80 73 65 51 32 24 17 3 349 3 356 348 347 336 336 344 349 346 337 329 328 328 321 322 332 273 206 206 211 218 222 191 190 180 163 154 181 204 204 170
94 91 82 79 73 62 57 34 31 3 350 355 344 339 347 339 334 330 331 332 328 317 315 317 312 313 313 317 320 316 214 216 206 207 197 189 185 184 175 179 194 187 173
100 106 102 85 75 68 52 37 18 356 343 358 331 338 351 334 335 329 323 319 317 313 310 306 308 306 304 308 304 310 318 281 225 207 204 195 189 184 170 170 162 139 171
99 84 73 77 76 67 50 43 22 334 335 327 318 339 327 318 318 314 315 319 312 309 304 301 297 303 307 309 307 304 314 334 322 266 211 203 187 172 167 166 168 169 179
93 96 96 108 109 90 63 20 337 332 339 326 333 321 306 309 308 308 309 319 323 328 329 323 313 312 315 311 300 302 328 332 337 314 277 203 189 175 175 183 177 164 157
114 118 123 128 108 106 163 282 278 326 347 345 328 321 318 309 315 325 339 345 340 337 330 326 325 329 319 311 309 325 319 307 304 303 311 256 193 183 182 190 182 184 164